Time,TemperatureF,DewpointF,PressureIn,WindDirection,WindDirectionDegrees,WindSpeedMPH,WindSpeedGustMPH,Humidity,HourlyPrecipIn,Conditions,Clouds,dailyrainin,SoftwareType,DateUTC
2013-03-29 00:03:00,41.9,30.6,30.23,SSE,147,0.0,5.0,64,0.00,,,0.00,meteohub,2013-03-29 05:03:00,
2013-03-29 00:08:00,41.4,30.6,30.23,SSE,147,0.0,5.0,65,0.00,,,0.00,meteohub,2013-03-29 05:08:00,
2013-03-29 00:13:00,40.8,30.7,30.23,SSE,147,0.0,2.0,67,0.00,,,0.00,meteohub,2013-03-29 05:13:00,
2013-03-29 00:18:00,40.8,31.1,30.23,SSE,147,0.0,2.0,68,0.00,,,0.00,meteohub,2013-03-29 05:18:00,
2013-03-29 00:23:00,41.2,31.5,30.23,SSE,147,0.0,0.0,68,0.00,,,0.00,meteohub,2013-03-29 05:23:00,
2013-03-29 00:29:00,41.7,31.6,30.22,SSE,147,0.0,0.0,67,0.00,,,0.00,meteohub,2013-03-29 05:29:00,
2013-03-29 00:34:00,41.9,31.5,30.22,SSE,147,0.0,0.0,66,0.00,,,0.00,meteohub,2013-03-29 05:34:00,
2013-03-29 00:39:00,41.5,31.5,30.22,SE,140,5.0,0.0,67,0.00,,,0.00,meteohub,2013-03-29 05:39:00,
2013-03-29 00:44:00,41.5,31.5,30.22,ESE,123,4.0,5.0,67,0.00,,,0.00,meteohub,2013-03-29 05:44:00,
2013-03-29 00:49:00,42.1,32.7,30.22,SE,124,7.0,7.0,69,0.00,,,0.00,meteohub,2013-03-29 05:49:00,
2013-03-29 00:55:00,42.6,32.4,30.22,SE,128,6.0,7.0,67,0.00,,,0.00,meteohub,2013-03-29 05:55:00,
2013-03-29 01:00:00,42.3,32.2,30.22,ESE,121,5.0,8.0,67,0.00,,,0.00,meteohub,2013-03-29 06:00:00,
2013-03-29 01:05:00,42.4,32.7,30.22,ESE,116,6.0,8.0,68,0.00,,,0.00,meteohub,2013-03-29 06:05:00,
2013-03-29 01:10:00,42.6,32.4,30.22,ESE,119,4.0,8.0,67,0.00,,,0.00,meteohub,2013-03-29 06:10:00,
2013-03-29 01:15:00,42.4,32.2,30.23,SE,124,5.0,7.0,67,0.00,,,0.00,meteohub,2013-03-29 06:15:00,
2013-03-29 01:21:00,42.4,32.2,30.22,SE,124,4.0,7.0,67,0.00,,,0.00,meteohub,2013-03-29 06:21:00,
2013-03-29 01:26:00,42.3,32.2,30.23,ENE,71,3.0,5.0,67,0.00,,,0.00,meteohub,2013-03-29 06:26:00,
2013-03-29 01:31:00,42.1,32.4,30.22,East,96,5.0,6.0,68,0.00,,,0.00,meteohub,2013-03-29 06:31:00,
2013-03-29 01:37:00,42.4,32.7,30.22,ESE,111,4.0,6.0,68,0.00,,,0.00,meteohub,2013-03-29 06:37:00,
2013-03-29 01:42:00,42.4,32.2,30.22,ESE,103,7.0,7.0,67,0.00,,,0.00,meteohub,2013-03-29 06:42:00,
2013-03-29 01:47:00,42.1,32.4,30.22,ESE,117,6.0,8.0,68,0.00,,,0.00,meteohub,2013-03-29 06:47:00,
2013-03-29 01:52:00,41.7,32.4,30.22,ESE,107,7.0,8.0,69,0.00,,,0.00,meteohub,2013-03-29 06:52:00,
2013-03-29 01:57:00,41.5,32.5,30.22,ESE,104,7.0,8.0,70,0.00,,,0.00,meteohub,2013-03-29 06:57:00,
2013-03-29 02:02:00,41.5,32.5,30.22,ESE,115,7.0,8.0,70,0.00,,,0.00,meteohub,2013-03-29 07:02:00,
2013-03-29 02:07:00,41.2,31.8,30.22,SE,136,2.0,8.0,69,0.00,,,0.00,meteohub,2013-03-29 07:07:00,
2013-03-29 02:12:00,39.9,30.9,30.22,SE,136,5.0,8.0,70,0.00,,,0.00,meteohub,2013-03-29 07:12:00,
2013-03-29 02:17:00,38.7,30.4,30.21,SE,127,2.0,8.0,72,0.00,,,0.00,meteohub,2013-03-29 07:17:00,
2013-03-29 02:22:00,37.8,30.2,30.21,ESE,109,6.0,6.0,74,0.00,,,0.00,meteohub,2013-03-29 07:22:00,
2013-03-29 02:27:00,38.7,31.8,30.21,SE,126,7.0,7.0,76,0.00,,,0.00,meteohub,2013-03-29 07:27:00,
2013-03-29 02:33:00,39.4,32.2,30.21,SE,124,5.0,7.0,75,0.00,,,0.00,meteohub,2013-03-29 07:33:00,
2013-03-29 02:38:00,39.7,32.5,30.20,ESE,111,6.0,7.0,75,0.00,,,0.00,meteohub,2013-03-29 07:38:00,
2013-03-29 02:43:00,40.3,32.7,30.20,ESE,108,8.0,8.0,74,0.00,,,0.00,meteohub,2013-03-29 07:43:00,
2013-03-29 02:48:00,40.6,32.7,30.20,ESE,104,8.0,9.0,73,0.00,,,0.00,meteohub,2013-03-29 07:48:00,
2013-03-29 02:53:00,40.5,32.5,30.20,ESE,116,6.0,9.0,73,0.00,,,0.00,meteohub,2013-03-29 07:53:00,
2013-03-29 02:58:00,40.1,32.2,30.19,ESE,121,4.0,9.0,73,0.00,,,0.00,meteohub,2013-03-29 07:58:00,
2013-03-29 03:04:00,39.7,31.8,30.19,ESE,114,5.0,9.0,73,0.00,,,0.00,meteohub,2013-03-29 08:04:00,
2013-03-29 03:09:00,39.0,31.8,30.19,ESE,117,6.0,8.0,75,0.00,,,0.00,meteohub,2013-03-29 08:09:00,
2013-03-29 03:14:00,38.8,32.0,30.19,ESE,108,5.0,7.0,76,0.00,,,0.00,meteohub,2013-03-29 08:14:00,
2013-03-29 03:20:00,39.4,32.5,30.19,ESE,105,7.0,7.0,76,0.00,,,0.00,meteohub,2013-03-29 08:20:00,
2013-03-29 03:25:00,39.7,32.7,30.19,East,91,6.0,8.0,76,0.00,,,0.00,meteohub,2013-03-29 08:25:00,
2013-03-29 03:30:00,39.9,32.7,30.19,ESE,113,6.0,8.0,75,0.00,,,0.00,meteohub,2013-03-29 08:30:00,
2013-03-29 03:36:00,39.7,32.5,30.19,ESE,108,6.0,8.0,75,0.00,,,0.00,meteohub,2013-03-29 08:36:00,
2013-03-29 03:41:00,39.7,32.7,30.19,ESE,105,6.0,8.0,76,0.00,,,0.00,meteohub,2013-03-29 08:41:00,
2013-03-29 03:46:00,39.7,32.5,30.19,ESE,109,6.0,8.0,75,0.00,,,0.00,meteohub,2013-03-29 08:46:00,
2013-03-29 03:52:00,39.4,32.5,30.19,ESE,118,5.0,8.0,76,0.00,,,0.00,meteohub,2013-03-29 08:52:00,
2013-03-29 03:57:00,39.0,32.2,30.19,ESE,116,2.0,8.0,76,0.00,,,0.00,meteohub,2013-03-29 08:57:00,
2013-03-29 04:02:00,38.5,31.8,30.19,SE,134,0.0,8.0,77,0.00,,,0.00,meteohub,2013-03-29 09:02:00,
2013-03-29 04:07:00,38.1,31.6,30.19,SE,135,0.0,7.0,77,0.00,,,0.00,meteohub,2013-03-29 09:07:00,
2013-03-29 04:12:00,37.6,31.3,30.19,SSE,154,0.0,5.0,78,0.00,,,0.00,meteohub,2013-03-29 09:12:00,
2013-03-29 04:18:00,37.2,31.6,30.19,SE,146,0.0,0.0,80,0.00,,,0.00,meteohub,2013-03-29 09:18:00,
2013-03-29 04:23:00,37.0,31.1,30.19,SE,146,0.0,0.0,79,0.00,,,0.00,meteohub,2013-03-29 09:23:00,
2013-03-29 04:28:00,36.5,30.9,30.19,SE,132,5.0,5.0,80,0.00,,,0.00,meteohub,2013-03-29 09:28:00,
2013-03-29 04:33:00,36.1,31.1,30.19,SE,131,6.0,6.0,82,0.00,,,0.00,meteohub,2013-03-29 09:33:00,
2013-03-29 04:39:00,36.3,31.3,30.19,SE,127,6.0,7.0,82,0.00,,,0.00,meteohub,2013-03-29 09:39:00,
2013-03-29 04:44:00,37.0,32.9,30.19,SE,126,8.0,8.0,85,0.00,,,0.00,meteohub,2013-03-29 09:44:00,
2013-03-29 04:49:00,38.3,33.6,30.19,ESE,123,6.0,8.0,83,0.00,,,0.00,meteohub,2013-03-29 09:49:00,
2013-03-29 04:54:00,38.5,33.1,30.19,SE,127,5.0,8.0,81,0.00,,,0.00,meteohub,2013-03-29 09:54:00,
2013-03-29 05:00:00,37.9,32.7,30.19,SE,140,4.0,8.0,81,0.00,,,0.00,meteohub,2013-03-29 10:00:00,
2013-03-29 05:05:00,37.2,31.6,30.19,SE,140,0.0,7.0,80,0.00,,,0.00,meteohub,2013-03-29 10:05:00,
2013-03-29 05:10:00,36.5,31.5,30.19,SE,142,0.0,5.0,82,0.00,,,0.00,meteohub,2013-03-29 10:10:00,
2013-03-29 05:15:00,36.3,31.6,30.20,SE,142,0.0,4.0,83,0.00,,,0.00,meteohub,2013-03-29 10:15:00,
2013-03-29 05:21:00,36.3,32.0,30.19,SE,141,0.0,0.0,84,0.00,,,0.00,meteohub,2013-03-29 10:21:00,
2013-03-29 05:26:00,36.1,31.5,30.19,SE,141,0.0,0.0,83,0.00,,,0.00,meteohub,2013-03-29 10:26:00,
2013-03-29 05:32:00,36.3,32.2,30.19,SE,142,4.0,5.0,85,0.00,,,0.00,meteohub,2013-03-29 10:32:00,
2013-03-29 05:37:00,36.3,32.0,30.19,SE,128,5.0,5.0,84,0.00,,,0.00,meteohub,2013-03-29 10:37:00,
2013-03-29 05:42:00,36.0,31.8,30.19,SE,128,5.0,6.0,85,0.00,,,0.00,meteohub,2013-03-29 10:42:00,
2013-03-29 05:47:00,36.0,31.8,30.20,SE,132,5.0,6.0,85,0.00,,,0.00,meteohub,2013-03-29 10:47:00,
2013-03-29 05:52:00,36.3,32.5,30.20,SE,132,4.0,6.0,86,0.00,,,0.00,meteohub,2013-03-29 10:52:00,
2013-03-29 05:57:00,36.5,32.7,30.20,SE,130,5.0,6.0,86,0.00,,,0.00,meteohub,2013-03-29 10:57:00,
2013-03-29 06:02:00,36.3,32.2,30.20,SE,130,5.0,5.0,85,0.00,,,0.00,meteohub,2013-03-29 11:02:00,
2013-03-29 06:07:00,36.7,32.9,30.20,SSE,152,4.0,6.0,86,0.00,,,0.00,meteohub,2013-03-29 11:07:00,
2013-03-29 06:12:00,36.3,32.2,30.20,SE,125,4.0,6.0,85,0.00,,,0.00,meteohub,2013-03-29 11:12:00,
2013-03-29 06:17:00,35.8,31.5,30.20,ESE,121,5.0,6.0,84,0.00,,,0.00,meteohub,2013-03-29 11:17:00,
2013-03-29 06:22:00,35.4,31.6,30.20,SE,128,5.0,6.0,86,0.00,,,0.00,meteohub,2013-03-29 11:22:00,
2013-03-29 06:28:00,35.6,31.8,30.20,SE,129,5.0,6.0,86,0.00,,,0.00,meteohub,2013-03-29 11:28:00,
2013-03-29 06:33:00,35.4,32.0,30.20,SE,128,6.0,6.0,87,0.00,,,0.00,meteohub,2013-03-29 11:33:00,
2013-03-29 06:38:00,35.8,32.4,30.20,SE,134,2.0,6.0,87,0.00,,,0.00,meteohub,2013-03-29 11:38:00,
2013-03-29 06:43:00,35.8,32.4,30.20,ESE,109,5.0,6.0,87,0.00,,,0.00,meteohub,2013-03-29 11:43:00,
2013-03-29 06:48:00,36.7,33.4,30.20,ESE,117,7.0,7.0,88,0.00,,,0.00,meteohub,2013-03-29 11:48:00,
2013-03-29 06:54:00,37.6,34.3,30.20,ESE,109,8.0,8.0,88,0.00,,,0.00,meteohub,2013-03-29 11:54:00,
2013-03-29 06:59:00,37.9,34.3,30.21,ESE,117,8.0,8.0,87,0.00,,,0.00,meteohub,2013-03-29 11:59:00,
2013-03-29 07:04:00,37.9,34.2,30.21,SE,124,8.0,9.0,86,0.00,,,0.00,meteohub,2013-03-29 12:04:00,
2013-03-29 07:09:00,37.4,33.6,30.21,SE,127,7.0,11.0,86,0.00,,,0.00,meteohub,2013-03-29 12:09:00,
2013-03-29 07:14:00,36.9,33.1,30.21,SE,132,7.0,11.0,86,0.00,,,0.00,meteohub,2013-03-29 12:14:00,
2013-03-29 07:19:00,36.3,32.5,30.21,SE,126,6.0,11.0,86,0.00,,,0.00,meteohub,2013-03-29 12:19:00,
2013-03-29 07:25:00,36.0,32.5,30.22,SE,130,5.0,9.0,87,0.00,,,0.00,meteohub,2013-03-29 12:25:00,
2013-03-29 07:30:00,35.8,32.4,30.22,SE,129,6.0,9.0,87,0.00,,,0.00,meteohub,2013-03-29 12:30:00,
2013-03-29 07:35:00,35.4,32.0,30.22,SE,130,4.0,7.0,87,0.00,,,0.00,meteohub,2013-03-29 12:35:00,
2013-03-29 07:40:00,35.2,32.0,30.22,ESE,123,5.0,7.0,88,0.00,,,0.00,meteohub,2013-03-29 12:40:00,
2013-03-29 07:46:00,35.2,32.4,30.22,SE,128,7.0,7.0,89,0.00,,,0.00,meteohub,2013-03-29 12:46:00,
2013-03-29 07:51:00,35.8,32.9,30.22,ESE,123,8.0,8.0,89,0.00,,,0.00,meteohub,2013-03-29 12:51:00,
2013-03-29 07:57:00,36.0,33.1,30.23,ESE,121,7.0,9.0,89,0.00,,,0.00,meteohub,2013-03-29 12:57:00,
2013-03-29 08:02:00,36.5,33.6,30.23,SE,138,6.0,9.0,89,0.00,,,0.00,meteohub,2013-03-29 13:02:00,
2013-03-29 08:07:00,37.0,34.3,30.23,SE,124,8.0,11.0,90,0.00,,,0.00,meteohub,2013-03-29 13:07:00,
2013-03-29 08:12:00,37.6,34.7,30.23,SE,128,5.0,11.0,89,0.00,,,0.00,meteohub,2013-03-29 13:12:00,
2013-03-29 08:17:00,38.3,35.6,30.24,SE,130,7.0,11.0,90,0.00,,,0.00,meteohub,2013-03-29 13:17:00,
2013-03-29 08:22:00,39.0,36.1,30.24,SE,142,6.0,9.0,89,0.00,,,0.00,meteohub,2013-03-29 13:22:00,
2013-03-29 08:27:00,39.7,36.7,30.23,SSE,147,7.0,12.0,89,0.00,,,0.00,meteohub,2013-03-29 13:27:00,
2013-03-29 08:32:00,40.5,37.2,30.23,ESE,115,6.0,12.0,88,0.00,,,0.00,meteohub,2013-03-29 13:32:00,
2013-03-29 08:38:00,41.0,37.4,30.24,ESE,112,7.0,12.0,87,0.00,,,0.00,meteohub,2013-03-29 13:38:00,
2013-03-29 08:43:00,41.5,37.6,30.24,ESE,117,8.0,13.0,86,0.00,,,0.00,meteohub,2013-03-29 13:43:00,
2013-03-29 08:48:00,42.1,37.9,30.24,SSE,150,8.0,13.0,85,0.00,,,0.00,meteohub,2013-03-29 13:48:00,
2013-03-29 08:53:00,42.4,38.3,30.24,SE,144,11.0,13.0,85,0.00,,,0.00,meteohub,2013-03-29 13:53:00,
2013-03-29 08:59:00,43.0,38.5,30.24,SE,130,15.0,15.0,84,0.00,,,0.00,meteohub,2013-03-29 13:59:00,
2013-03-29 09:04:00,43.2,38.1,30.23,SE,138,12.0,14.0,82,0.00,,,0.00,meteohub,2013-03-29 14:04:00,
2013-03-29 09:10:00,43.3,38.3,30.23,SE,130,17.0,17.0,82,0.00,,,0.00,meteohub,2013-03-29 14:10:00,
2013-03-29 09:15:00,43.5,38.5,30.23,SE,136,14.0,18.0,82,0.00,,,0.00,meteohub,2013-03-29 14:15:00,
2013-03-29 09:20:00,44.1,38.7,30.23,ESE,119,12.0,18.0,81,0.00,,,0.00,meteohub,2013-03-29 14:20:00,
2013-03-29 09:25:00,44.2,38.5,30.24,SE,142,7.0,18.0,80,0.00,,,0.00,meteohub,2013-03-29 14:25:00,
2013-03-29 09:30:00,45.0,39.2,30.24,SE,140,11.0,17.0,80,0.00,,,0.00,meteohub,2013-03-29 14:30:00,
2013-03-29 09:36:00,45.5,39.7,30.24,SE,134,13.0,17.0,80,0.00,,,0.00,meteohub,2013-03-29 14:36:00,
2013-03-29 09:41:00,46.0,39.6,30.24,SE,144,8.0,15.0,78,0.00,,,0.00,meteohub,2013-03-29 14:41:00,
2013-03-29 09:46:00,47.1,39.9,30.24,SE,145,12.0,15.0,76,0.00,,,0.00,meteohub,2013-03-29 14:46:00,
2013-03-29 09:51:00,47.7,40.5,30.25,SSE,150,9.0,14.0,76,0.00,,,0.00,meteohub,2013-03-29 14:51:00,
2013-03-29 09:57:00,48.6,41.0,30.24,SE,140,18.0,18.0,75,0.00,,,0.00,meteohub,2013-03-29 14:57:00,
2013-03-29 10:02:00,48.7,40.1,30.24,SE,130,15.0,18.0,72,0.00,,,0.00,meteohub,2013-03-29 15:02:00,
2013-03-29 10:07:00,49.5,40.8,30.24,SSE,152,11.0,18.0,72,0.00,,,0.00,meteohub,2013-03-29 15:07:00,
2013-03-29 10:12:00,50.2,41.2,30.24,SE,125,16.0,18.0,71,0.00,,,0.00,meteohub,2013-03-29 15:12:00,
2013-03-29 10:17:00,51.1,41.2,30.24,SE,140,18.0,18.0,69,0.00,,,0.00,meteohub,2013-03-29 15:17:00,
2013-03-29 10:22:00,51.6,41.0,30.24,SE,132,9.0,20.0,67,0.00,,,0.00,meteohub,2013-03-29 15:22:00,
2013-03-29 10:27:00,52.3,41.4,30.24,SE,134,15.0,20.0,66,0.00,,,0.00,meteohub,2013-03-29 15:27:00,
2013-03-29 10:32:00,53.1,41.5,30.24,SE,132,16.0,21.0,65,0.00,,,0.00,meteohub,2013-03-29 15:32:00,
2013-03-29 10:37:00,53.2,41.4,30.24,SE,142,14.0,21.0,64,0.00,,,0.00,meteohub,2013-03-29 15:37:00,
2013-03-29 10:43:00,53.6,41.4,30.23,SE,126,14.0,21.0,63,0.00,,,0.00,meteohub,2013-03-29 15:43:00,
2013-03-29 10:48:00,54.5,42.1,30.23,SE,142,15.0,20.0,63,0.00,,,0.00,meteohub,2013-03-29 15:48:00,
2013-03-29 10:53:00,54.7,41.0,30.24,SE,137,13.0,20.0,60,0.00,,,0.00,meteohub,2013-03-29 15:53:00,
2013-03-29 10:58:00,54.9,41.2,30.24,SE,140,18.0,21.0,60,0.00,,,0.00,meteohub,2013-03-29 15:58:00,
2013-03-29 11:01:00,54.9,41.7,30.23,SSE,167,15.0,22.0,61,0.00,,,0.00,meteohub,2013-03-29 16:01:00,
2013-03-29 11:07:00,55.9,41.9,30.23,South,171,14.0,23.0,59,0.00,,,0.00,meteohub,2013-03-29 16:07:00,
2013-03-29 11:16:00,55.8,40.3,30.23,SSE,154,17.0,24.0,56,0.00,,,0.00,meteohub,2013-03-29 16:16:00,
2013-03-29 11:22:00,56.1,40.6,30.23,SE,140,12.0,24.0,56,0.00,,,0.00,meteohub,2013-03-29 16:22:00,
2013-03-29 11:27:00,56.5,40.5,30.23,SE,127,14.0,27.0,55,0.00,,,0.00,meteohub,2013-03-29 16:27:00,
2013-03-29 11:33:00,56.8,40.8,30.23,SE,139,15.0,27.0,55,0.00,,,0.00,meteohub,2013-03-29 16:33:00,
2013-03-29 11:38:00,57.4,40.8,30.22,SSE,157,17.0,27.0,54,0.00,,,0.00,meteohub,2013-03-29 16:38:00,
2013-03-29 11:43:00,58.3,40.8,30.22,SE,129,22.0,23.0,52,0.00,,,0.00,meteohub,2013-03-29 16:43:00,
2013-03-29 11:48:00,57.9,39.4,30.22,SSE,151,22.0,25.0,50,0.00,,,0.00,meteohub,2013-03-29 16:48:00,
2013-03-29 11:54:00,58.3,39.7,30.22,ESE,116,20.0,27.0,50,0.00,,,0.00,meteohub,2013-03-29 16:54:00,
2013-03-29 11:59:00,58.5,39.9,30.22,SE,133,16.0,27.0,50,0.00,,,0.00,meteohub,2013-03-29 16:59:00,
2013-03-29 12:04:00,59.4,39.7,30.21,SSE,153,16.0,27.0,48,0.00,,,0.00,meteohub,2013-03-29 17:04:00,
2013-03-29 12:10:00,59.4,40.3,30.21,ESE,111,19.0,27.0,49,0.00,,,0.00,meteohub,2013-03-29 17:10:00,
2013-03-29 12:15:00,59.5,38.7,30.21,SE,135,18.0,27.0,46,0.00,,,0.00,meteohub,2013-03-29 17:15:00,
2013-03-29 12:20:00,59.7,38.8,30.21,SSE,152,8.0,23.0,46,0.00,,,0.00,meteohub,2013-03-29 17:20:00,
2013-03-29 12:26:00,59.9,37.9,30.21,SSE,152,15.0,23.0,44,0.00,,,0.00,meteohub,2013-03-29 17:26:00,
2013-03-29 12:31:00,60.3,38.8,30.21,SE,134,14.0,24.0,45,0.00,,,0.00,meteohub,2013-03-29 17:31:00,
2013-03-29 12:37:00,60.8,38.7,30.20,SSE,147,11.0,24.0,44,0.00,,,0.00,meteohub,2013-03-29 17:37:00,
2013-03-29 12:42:00,60.8,36.9,30.20,ESE,123,14.0,24.0,41,0.00,,,0.00,meteohub,2013-03-29 17:42:00,
2013-03-29 12:47:00,60.4,36.7,30.20,SE,137,14.0,25.0,41,0.00,,,0.00,meteohub,2013-03-29 17:47:00,
2013-03-29 12:52:00,61.2,36.7,30.19,SE,134,25.0,26.0,40,0.00,,,0.00,meteohub,2013-03-29 17:52:00,
2013-03-29 12:57:00,61.5,36.3,30.19,SE,132,17.0,26.0,39,0.00,,,0.00,meteohub,2013-03-29 17:57:00,
2013-03-29 13:03:00,61.3,35.6,30.19,SSE,162,15.0,26.0,38,0.00,,,0.00,meteohub,2013-03-29 18:03:00,
2013-03-29 13:08:00,61.9,36.0,30.19,SSE,167,18.0,27.0,38,0.00,,,0.00,meteohub,2013-03-29 18:08:00,
2013-03-29 13:13:00,61.7,36.5,30.18,SSE,150,16.0,27.0,39,0.00,,,0.00,meteohub,2013-03-29 18:13:00,
2013-03-29 13:18:00,62.2,36.3,30.18,SE,132,20.0,27.0,38,0.00,,,0.00,meteohub,2013-03-29 18:18:00,
2013-03-29 13:23:00,62.4,35.8,30.18,SE,134,22.0,25.0,37,0.00,,,0.00,meteohub,2013-03-29 18:23:00,
2013-03-29 13:28:00,62.4,35.8,30.17,SSE,155,11.0,27.0,37,0.00,,,0.00,meteohub,2013-03-29 18:28:00,
2013-03-29 13:34:00,62.8,36.1,30.17,ESE,122,19.0,27.0,37,0.00,,,0.00,meteohub,2013-03-29 18:34:00,
2013-03-29 13:39:00,63.3,34.5,30.17,SE,140,21.0,28.0,34,0.00,,,0.00,meteohub,2013-03-29 18:39:00,
2013-03-29 13:44:00,63.1,35.1,30.17,SE,128,17.0,28.0,35,0.00,,,0.00,meteohub,2013-03-29 18:44:00,
2013-03-29 13:49:00,63.7,34.0,30.17,SE,130,15.0,28.0,33,0.00,,,0.00,meteohub,2013-03-29 18:49:00,
2013-03-29 13:54:00,64.0,34.3,30.17,SE,138,15.0,23.0,33,0.00,,,0.00,meteohub,2013-03-29 18:54:00,
2013-03-29 14:00:00,64.0,33.6,30.17,SE,128,13.0,22.0,32,0.00,,,0.00,meteohub,2013-03-29 19:00:00,
2013-03-29 14:05:00,64.0,34.3,30.16,SE,130,18.0,22.0,33,0.00,,,0.00,meteohub,2013-03-29 19:05:00,
2013-03-29 14:10:00,64.8,34.2,30.16,SSE,164,13.0,22.0,32,0.00,,,0.00,meteohub,2013-03-29 19:10:00,
2013-03-29 14:15:00,64.6,34.0,30.16,SE,131,11.0,25.0,32,0.00,,,0.00,meteohub,2013-03-29 19:15:00,
2013-03-29 14:20:00,64.8,34.2,30.15,SE,133,15.0,25.0,32,0.00,,,0.00,meteohub,2013-03-29 19:20:00,
2013-03-29 14:25:00,65.1,34.5,30.15,SSE,165,17.0,23.0,32,0.00,,,0.00,meteohub,2013-03-29 19:25:00,
2013-03-29 14:30:00,65.1,33.8,30.15,SSE,165,9.0,23.0,31,0.00,,,0.00,meteohub,2013-03-29 19:30:00,
2013-03-29 14:35:00,64.9,33.6,30.14,SE,132,21.0,26.0,31,0.00,,,0.00,meteohub,2013-03-29 19:35:00,
2013-03-29 14:41:00,65.7,34.2,30.14,SE,131,17.0,26.0,31,0.00,,,0.00,meteohub,2013-03-29 19:41:00,
2013-03-29 14:46:00,66.0,33.6,30.14,SE,132,23.0,26.0,30,0.00,,,0.00,meteohub,2013-03-29 19:46:00,
2013-03-29 14:51:00,66.2,33.8,30.13,SE,141,20.0,26.0,30,0.00,,,0.00,meteohub,2013-03-29 19:51:00,
2013-03-29 14:56:00,66.6,35.1,30.13,SE,146,12.0,29.0,31,0.00,,,0.00,meteohub,2013-03-29 19:56:00,
2013-03-29 15:02:00,66.4,32.4,30.13,SSE,160,18.0,29.0,28,0.00,,,0.00,meteohub,2013-03-29 20:02:00,
2013-03-29 15:07:00,66.6,31.5,30.13,SSE,159,19.0,29.0,27,0.00,,,0.00,meteohub,2013-03-29 20:07:00,
2013-03-29 15:12:00,66.6,32.4,30.12,SE,143,10.0,28.0,28,0.00,,,0.00,meteohub,2013-03-29 20:12:00,
2013-03-29 15:17:00,66.6,31.5,30.12,SE,132,20.0,28.0,27,0.00,,,0.00,meteohub,2013-03-29 20:17:00,
2013-03-29 15:22:00,66.6,32.4,30.12,SE,134,11.0,25.0,28,0.00,,,0.00,meteohub,2013-03-29 20:22:00,
2013-03-29 15:27:00,66.6,31.5,30.12,SE,132,15.0,25.0,27,0.00,,,0.00,meteohub,2013-03-29 20:27:00,
2013-03-29 15:32:00,67.3,33.1,30.12,ESE,113,12.0,25.0,28,0.00,,,0.00,meteohub,2013-03-29 20:32:00,
2013-03-29 15:37:00,67.3,31.3,30.12,SE,124,15.0,23.0,26,0.00,,,0.00,meteohub,2013-03-29 20:37:00,
2013-03-29 15:42:00,67.5,32.4,30.11,SSE,160,15.0,27.0,27,0.00,,,0.00,meteohub,2013-03-29 20:42:00,
2013-03-29 15:47:00,67.5,32.4,30.11,SSW,203,11.0,27.0,27,0.00,,,0.00,meteohub,2013-03-29 20:47:00,
2013-03-29 15:53:00,68.0,32.7,30.11,ESE,116,12.0,27.0,27,0.00,,,0.00,meteohub,2013-03-29 20:53:00,
2013-03-29 15:58:00,67.6,31.5,30.11,SE,126,7.0,21.0,26,0.00,,,0.00,meteohub,2013-03-29 20:58:00,
2013-03-29 16:03:00,68.2,32.9,30.10,SE,128,14.0,21.0,27,0.00,,,0.00,meteohub,2013-03-29 21:03:00,
2013-03-29 16:08:00,67.8,31.6,30.10,SSE,157,8.0,22.0,26,0.00,,,0.00,meteohub,2013-03-29 21:08:00,
2013-03-29 16:13:00,67.6,30.6,30.10,SSW,194,10.0,24.0,25,0.00,,,0.00,meteohub,2013-03-29 21:13:00,
2013-03-29 16:18:00,67.6,31.5,30.10,South,181,14.0,24.0,26,0.00,,,0.00,meteohub,2013-03-29 21:18:00,
2013-03-29 16:24:00,67.6,31.5,30.10,SSE,150,20.0,24.0,26,0.00,,,0.00,meteohub,2013-03-29 21:24:00,
2013-03-29 16:29:00,67.5,32.4,30.10,SSE,163,11.0,23.0,27,0.00,,,0.00,meteohub,2013-03-29 21:29:00,
2013-03-29 16:34:00,67.6,32.5,30.10,South,173,9.0,24.0,27,0.00,,,0.00,meteohub,2013-03-29 21:34:00,
2013-03-29 16:39:00,67.6,32.5,30.09,SSE,153,12.0,24.0,27,0.00,,,0.00,meteohub,2013-03-29 21:39:00,
2013-03-29 16:45:00,67.6,33.4,30.09,SSE,157,9.0,24.0,28,0.00,,,0.00,meteohub,2013-03-29 21:45:00,
2013-03-29 16:50:00,68.0,32.7,30.09,SE,140,17.0,25.0,27,0.00,,,0.00,meteohub,2013-03-29 21:50:00,
2013-03-29 16:55:00,68.5,33.3,30.09,SSE,168,11.0,25.0,27,0.00,,,0.00,meteohub,2013-03-29 21:55:00,
2013-03-29 17:00:00,68.5,33.3,30.09,South,180,8.0,25.0,27,0.00,,,0.00,meteohub,2013-03-29 22:00:00,
2013-03-29 17:05:00,68.5,32.4,30.09,SSE,153,14.0,19.0,26,0.00,,,0.00,meteohub,2013-03-29 22:05:00,
2013-03-29 17:11:00,68.4,32.2,30.09,ESE,119,14.0,20.0,26,0.00,,,0.00,meteohub,2013-03-29 22:11:00,
2013-03-29 17:16:00,68.0,31.8,30.09,SE,142,17.0,23.0,26,0.00,,,0.00,meteohub,2013-03-29 22:16:00,
2013-03-29 17:22:00,68.4,33.1,30.09,SSW,194,15.0,23.0,27,0.00,,,0.00,meteohub,2013-03-29 22:22:00,
2013-03-29 17:27:00,67.8,32.5,30.09,South,176,15.0,23.0,27,0.00,,,0.00,meteohub,2013-03-29 22:27:00,
2013-03-29 17:32:00,67.8,32.5,30.09,SE,135,20.0,21.0,27,0.00,,,0.00,meteohub,2013-03-29 22:32:00,
2013-03-29 17:37:00,67.8,33.4,30.09,SE,144,12.0,21.0,28,0.00,,,0.00,meteohub,2013-03-29 22:37:00,
2013-03-29 17:43:00,68.0,31.8,30.09,SE,137,11.0,21.0,26,0.00,,,0.00,meteohub,2013-03-29 22:43:00,
2013-03-29 17:48:00,68.0,33.6,30.09,South,186,15.0,22.0,28,0.00,,,0.00,meteohub,2013-03-29 22:48:00,
2013-03-29 17:53:00,68.0,33.6,30.08,SE,135,13.0,22.0,28,0.00,,,0.00,meteohub,2013-03-29 22:53:00,
2013-03-29 17:58:00,67.5,33.3,30.08,SSE,159,14.0,23.0,28,0.00,,,0.00,meteohub,2013-03-29 22:58:00,
2013-03-29 18:04:00,67.3,33.1,30.08,SSE,165,10.0,23.0,28,0.00,,,0.00,meteohub,2013-03-29 23:04:00,
2013-03-29 18:09:00,66.9,32.7,30.08,SE,143,10.0,23.0,28,0.00,,,0.00,meteohub,2013-03-29 23:09:00,
2013-03-29 18:14:00,66.6,34.2,30.08,SSE,156,10.0,22.0,30,0.00,,,0.00,meteohub,2013-03-29 23:14:00,
2013-03-29 18:19:00,66.6,34.2,30.08,SSE,164,9.0,21.0,30,0.00,,,0.00,meteohub,2013-03-29 23:19:00,
2013-03-29 18:25:00,66.6,34.2,30.08,SE,135,12.0,20.0,30,0.00,,,0.00,meteohub,2013-03-29 23:25:00,
2013-03-29 18:30:00,66.4,34.0,30.08,SE,133,15.0,16.0,30,0.00,,,0.00,meteohub,2013-03-29 23:30:00,
2013-03-29 18:35:00,66.4,34.0,30.08,SSE,148,12.0,18.0,30,0.00,,,0.00,meteohub,2013-03-29 23:35:00,
2013-03-29 18:40:00,66.0,33.6,30.07,SSE,161,13.0,21.0,30,0.00,,,0.00,meteohub,2013-03-29 23:40:00,
2013-03-29 18:46:00,65.7,34.2,30.07,ESE,117,12.0,21.0,31,0.00,,,0.00,meteohub,2013-03-29 23:46:00,
2013-03-29 18:51:00,65.5,34.9,30.07,SSE,148,11.0,21.0,32,0.00,,,0.00,meteohub,2013-03-29 23:51:00,
2013-03-29 18:56:00,64.9,34.3,30.07,SE,128,14.0,20.0,32,0.00,,,0.00,meteohub,2013-03-29 23:56:00,
2013-03-29 19:01:00,64.8,35.1,30.07,SE,124,14.0,18.0,33,0.00,,,0.00,meteohub,2013-03-30 00:01:00,
2013-03-29 19:06:00,64.2,35.2,30.07,SE,139,12.0,18.0,34,0.00,,,0.00,meteohub,2013-03-30 00:06:00,
2013-03-29 19:12:00,63.9,34.9,30.07,SSE,157,12.0,18.0,34,0.00,,,0.00,meteohub,2013-03-30 00:12:00,
2013-03-29 19:17:00,63.7,34.7,30.07,SE,135,10.0,17.0,34,0.00,,,0.00,meteohub,2013-03-30 00:17:00,
2013-03-29 19:22:00,63.1,35.1,30.07,SE,140,12.0,17.0,35,0.00,,,0.00,meteohub,2013-03-30 00:22:00,
2013-03-29 19:27:00,62.6,35.2,30.07,SE,132,12.0,17.0,36,0.00,,,0.00,meteohub,2013-03-30 00:27:00,
2013-03-29 19:32:00,62.1,34.9,30.07,SE,137,12.0,15.0,36,0.00,,,0.00,meteohub,2013-03-30 00:32:00,
2013-03-29 19:37:00,61.5,35.1,30.06,SE,138,12.0,14.0,37,0.00,,,0.00,meteohub,2013-03-30 00:37:00,
2013-03-29 19:42:00,61.2,35.4,30.06,SE,139,12.0,14.0,38,0.00,,,0.00,meteohub,2013-03-30 00:42:00,
2013-03-29 19:47:00,61.0,35.2,30.06,SE,138,10.0,15.0,38,0.00,,,0.00,meteohub,2013-03-30 00:47:00,
2013-03-29 19:52:00,60.4,34.7,30.06,SE,138,11.0,15.0,38,0.00,,,0.00,meteohub,2013-03-30 00:52:00,
2013-03-29 19:57:00,60.3,35.2,30.06,SE,128,12.0,15.0,39,0.00,,,0.00,meteohub,2013-03-30 00:57:00,
2013-03-29 20:02:00,59.7,34.7,30.06,SE,133,12.0,13.0,39,0.00,,,0.00,meteohub,2013-03-30 01:02:00,
2013-03-29 20:07:00,59.4,35.1,30.06,ESE,122,11.0,13.0,40,0.00,,,0.00,meteohub,2013-03-30 01:07:00,
2013-03-29 20:12:00,59.4,35.1,30.06,SE,142,6.0,13.0,40,0.00,,,0.00,meteohub,2013-03-30 01:12:00,
2013-03-29 20:18:00,59.4,35.1,30.06,SE,133,11.0,14.0,40,0.00,,,0.00,meteohub,2013-03-30 01:18:00,
2013-03-29 20:23:00,59.2,34.9,30.06,ESE,122,9.0,15.0,40,0.00,,,0.00,meteohub,2013-03-30 01:23:00,
2013-03-29 20:28:00,59.0,34.7,30.06,SE,142,9.0,15.0,40,0.00,,,0.00,meteohub,2013-03-30 01:28:00,
2013-03-29 20:33:00,58.8,34.5,30.06,SE,136,9.0,15.0,40,0.00,,,0.00,meteohub,2013-03-30 01:33:00,
2013-03-29 20:39:00,58.5,34.2,30.06,SE,138,10.0,15.0,40,0.00,,,0.00,meteohub,2013-03-30 01:39:00,
2013-03-29 20:44:00,57.9,34.3,30.06,SE,142,11.0,15.0,41,0.00,,,0.00,meteohub,2013-03-30 01:44:00,
2013-03-29 20:49:00,57.4,34.5,30.06,SE,137,9.0,15.0,42,0.00,,,0.00,meteohub,2013-03-30 01:49:00,
2013-03-29 20:54:00,56.8,34.0,30.06,SE,138,8.0,15.0,42,0.00,,,0.00,meteohub,2013-03-30 01:54:00,
2013-03-29 20:59:00,56.5,34.3,30.06,ESE,123,8.0,13.0,43,0.00,,,0.00,meteohub,2013-03-30 01:59:00,
2013-03-29 21:05:00,56.5,34.3,30.06,SSE,147,10.0,13.0,43,0.00,,,0.00,meteohub,2013-03-30 02:05:00,
2013-03-29 21:10:00,56.7,34.3,30.06,SE,134,14.0,14.0,43,0.00,,,0.00,meteohub,2013-03-30 02:10:00,
2013-03-29 21:15:00,56.7,34.3,30.06,SE,138,11.0,14.0,43,0.00,,,0.00,meteohub,2013-03-30 02:15:00,
2013-03-29 21:20:00,56.7,34.3,30.06,SE,140,13.0,16.0,43,0.00,,,0.00,meteohub,2013-03-30 02:20:00,
2013-03-29 21:26:00,56.5,34.3,30.06,SE,141,13.0,17.0,43,0.00,,,0.00,meteohub,2013-03-30 02:26:00,
2013-03-29 21:31:00,56.7,34.3,30.06,SSE,161,14.0,17.0,43,0.00,,,0.00,meteohub,2013-03-30 02:31:00,
2013-03-29 21:37:00,56.8,34.5,30.06,SE,133,15.0,19.0,43,0.00,,,0.00,meteohub,2013-03-30 02:37:00,
2013-03-29 21:42:00,57.0,34.7,30.06,SE,130,16.0,22.0,43,0.00,,,0.00,meteohub,2013-03-30 02:42:00,
2013-03-29 21:47:00,56.8,34.5,30.06,SE,128,16.0,22.0,43,0.00,,,0.00,meteohub,2013-03-30 02:47:00,
2013-03-29 21:52:00,56.7,34.3,30.05,SE,130,15.0,22.0,43,0.00,,,0.00,meteohub,2013-03-30 02:52:00,
2013-03-29 21:57:00,56.8,34.5,30.05,SE,134,17.0,23.0,43,0.00,,,0.00,meteohub,2013-03-30 02:57:00,
2013-03-29 22:03:00,56.7,34.3,30.05,SE,136,19.0,23.0,43,0.00,,,0.00,meteohub,2013-03-30 03:03:00,
2013-03-29 22:08:00,56.8,34.5,30.05,SE,126,20.0,25.0,43,0.00,,,0.00,meteohub,2013-03-30 03:08:00,
2013-03-29 22:13:00,57.0,34.7,30.05,SE,132,18.0,25.0,43,0.00,,,0.00,meteohub,2013-03-30 03:13:00,
2013-03-29 22:19:00,57.2,34.9,30.05,SE,142,22.0,25.0,43,0.00,,,0.00,meteohub,2013-03-30 03:19:00,
2013-03-29 22:24:00,56.8,35.2,30.04,SSE,158,20.0,25.0,44,0.00,,,0.00,meteohub,2013-03-30 03:24:00,
2013-03-29 22:29:00,56.7,34.3,30.04,SE,143,19.0,25.0,43,0.00,,,0.00,meteohub,2013-03-30 03:29:00,
2013-03-29 22:34:00,56.7,35.1,30.04,SE,134,25.0,25.0,44,0.00,,,0.00,meteohub,2013-03-30 03:34:00,
2013-03-29 22:40:00,56.7,35.1,30.04,SE,134,22.0,24.0,44,0.00,,,0.00,meteohub,2013-03-30 03:40:00,
2013-03-29 22:45:00,56.8,35.2,30.04,SSE,152,20.0,27.0,44,0.00,,,0.00,meteohub,2013-03-30 03:45:00,
2013-03-29 22:50:00,56.8,35.2,30.04,SSE,163,25.0,27.0,44,0.00,,,0.00,meteohub,2013-03-30 03:50:00,
2013-03-29 22:55:00,57.0,35.2,30.04,SE,134,22.0,32.0,44,0.00,,,0.00,meteohub,2013-03-30 03:55:00,
2013-03-29 23:00:00,57.0,35.2,30.04,SE,139,18.0,32.0,44,0.00,,,0.00,meteohub,2013-03-30 04:00:00,
2013-03-29 23:02:00,57.0,35.2,30.04,South,172,20.0,33.0,44,0.00,,,0.00,meteohub,2013-03-30 04:02:00,
2013-03-29 23:07:00,56.8,35.2,30.04,SSE,153,17.0,34.0,44,0.00,,,0.00,meteohub,2013-03-30 04:07:00,
2013-03-29 23:12:00,56.7,35.6,30.05,SSE,149,18.0,34.0,45,0.00,,,0.00,meteohub,2013-03-30 04:12:00,
2013-03-29 23:17:00,56.5,35.4,30.05,SE,132,19.0,30.0,45,0.00,,,0.00,meteohub,2013-03-30 04:17:00,
2013-03-29 23:23:00,56.1,35.1,30.05,SE,139,17.0,28.0,45,0.00,,,0.00,meteohub,2013-03-30 04:23:00,
2013-03-29 23:28:00,55.8,35.2,30.05,SE,126,14.0,28.0,46,0.00,,,0.00,meteohub,2013-03-30 04:28:00,
2013-03-29 23:33:00,55.4,34.9,30.05,SE,126,17.0,28.0,46,0.00,,,0.00,meteohub,2013-03-30 04:33:00,
2013-03-29 23:38:00,55.2,35.4,30.05,SE,137,15.0,23.0,47,0.00,,,0.00,meteohub,2013-03-30 04:38:00,
2013-03-29 23:43:00,55.0,35.2,30.05,South,170,13.0,23.0,47,0.00,,,0.00,meteohub,2013-03-30 04:43:00,
2013-03-29 23:49:00,54.9,35.6,30.05,SSE,148,15.0,23.0,48,0.00,,,0.00,meteohub,2013-03-30 04:49:00,
2013-03-29 23:54:00,54.7,35.4,30.06,SE,142,8.0,19.0,48,0.00,,,0.00,meteohub,2013-03-30 04:54:00,
2013-03-29 23:59:00,54.5,35.2,30.06,SSE,155,10.0,19.0,48,0.00,,,0.00,meteohub,2013-03-30 04:59:00,